Location: Poughquag
(41.6090°N, 73.6820°W)
Time: 16:34:06
(UTC-05:00)

Envisat - Pass Details

Date: 26 January 2020
Orbit: 764 x 766 km, 98.1° (Epoch: 24 February)

Event Time Altitude Azimuth Distance (km) Brightness Sun altitude
Rises 05:36:14 0° 27° (NNE) 3,240 6.5 -18.0°
Reaches altitude 10° 05:39:02 10° 42° (NE) 2,308 5.9 -17.5°
Maximum altitude 05:43:00 23° 93° (E) 1,598 5.6 -16.8°
Drops below altitude 10° 05:46:56 10° 145° (SE) 2,294 6.1 -16.0°
Sets 05:49:42 0° 160° (SSE) 3,215 6.7 -15.5°
